Time,TemperatureF,DewpointF,PressureIn,WindDirection,WindDirectionDegrees,WindSpeedMPH,WindSpeedGustMPH,Humidity,HourlyPrecipIn,Conditions,Clouds,dailyrainin,SoftwareType,DateUTC
2013-07-13 00:02:00,81.7,64.9,27.34,ENE,68,0.0,0.0,57,0.00,,,0.00,WUHU216HW,2013-07-13 07:02:00,
2013-07-13 00:07:00,81.5,65.3,27.34,ENE,68,0.0,0.0,58,0.00,,,0.00,WUHU216HW,2013-07-13 07:07:00,
2013-07-13 00:12:00,81.4,65.2,27.34,ENE,68,0.0,0.0,58,0.00,,,0.00,WUHU216HW,2013-07-13 07:12:00,
2013-07-13 00:17:00,81.2,65.5,27.34,ENE,68,0.0,0.0,59,0.00,,,0.00,WUHU216HW,2013-07-13 07:17:00,
2013-07-13 00:22:00,81.0,65.4,27.34,ENE,68,0.0,0.0,59,0.00,,,0.00,WUHU216HW,2013-07-13 07:22:00,
2013-07-13 00:27:00,80.8,65.2,27.34,ESE,113,0.0,0.4,59,0.00,,,0.00,WUHU216HW,2013-07-13 07:27:00,
2013-07-13 00:32:00,80.6,64.4,27.34,SE,135,0.0,0.4,58,0.00,,,0.00,WUHU216HW,2013-07-13 07:32:00,
2013-07-13 00:37:00,80.6,65.0,27.34,SE,135,0.0,0.0,59,0.00,,,0.00,WUHU216HW,2013-07-13 07:37:00,
2013-07-13 00:42:00,80.6,65.0,27.34,SE,135,0.0,0.0,59,0.00,,,0.00,WUHU216HW,2013-07-13 07:42:00,
2013-07-13 00:47:00,80.5,64.8,27.34,ESE,113,0.0,0.0,59,0.00,,,0.00,WUHU216HW,2013-07-13 07:47:00,
2013-07-13 00:52:00,80.3,64.7,27.34,SE,135,0.0,0.7,59,0.00,,,0.00,WUHU216HW,2013-07-13 07:52:00,
2013-07-13 00:57:00,80.3,65.2,27.34,SE,135,0.0,0.7,60,0.00,,,0.00,WUHU216HW,2013-07-13 07:57:00,
2013-07-13 01:02:00,80.1,65.1,27.34,SE,135,0.0,0.0,60,0.00,,,0.00,WUHU216HW,2013-07-13 08:02:00,
2013-07-13 01:07:00,79.9,65.4,27.34,SE,135,0.0,0.0,61,0.00,,,0.00,WUHU216HW,2013-07-13 08:07:00,
2013-07-13 01:12:00,79.9,65.4,27.33,ESE,113,0.0,0.0,61,0.00,,,0.00,WUHU216HW,2013-07-13 08:12:00,
2013-07-13 01:17:00,79.7,65.6,27.33,ESE,113,0.0,0.0,62,0.00,,,0.00,WUHU216HW,2013-07-13 08:17:00,
2013-07-13 01:22:00,79.6,65.4,27.33,ESE,113,0.0,0.0,62,0.00,,,0.00,WUHU216HW,2013-07-13 08:22:00,
2013-07-13 01:27:00,79.2,65.5,27.33,ESE,113,0.0,0.0,63,0.00,,,0.00,WUHU216HW,2013-07-13 08:27:00,
2013-07-13 01:32:00,79.2,66.0,27.34,ESE,113,0.0,0.0,64,0.00,,,0.00,WUHU216HW,2013-07-13 08:32:00,
2013-07-13 01:37:00,79.2,66.0,27.34,ESE,113,0.0,0.0,64,0.00,,,0.00,WUHU216HW,2013-07-13 08:37:00,
2013-07-13 01:42:00,79.0,65.3,27.34,East,90,0.0,0.0,63,0.00,,,0.00,WUHU216HW,2013-07-13 08:42:00,
2013-07-13 01:47:00,79.0,65.3,27.34,NE,45,0.0,0.9,63,0.00,,,0.00,WUHU216HW,2013-07-13 08:47:00,
2013-07-13 01:52:00,79.0,65.3,27.34,NE,45,0.0,0.9,63,0.00,,,0.00,WUHU216HW,2013-07-13 08:52:00,
2013-07-13 01:57:00,79.0,65.3,27.34,NE,45,0.0,0.0,63,0.00,,,0.00,WUHU216HW,2013-07-13 08:57:00,
2013-07-13 02:02:00,78.8,65.2,27.34,NE,45,0.0,0.0,63,0.00,,,0.00,WUHU216HW,2013-07-13 09:02:00,
2013-07-13 02:07:00,78.8,64.8,27.34,NE,45,0.0,0.0,62,0.00,,,0.00,WUHU216HW,2013-07-13 09:07:00,
2013-07-13 02:12:00,78.8,65.2,27.34,NE,45,0.0,0.0,63,0.00,,,0.00,WUHU216HW,2013-07-13 09:12:00,
2013-07-13 02:17:00,78.8,65.2,27.34,NE,45,0.0,0.0,63,0.00,,,0.00,WUHU216HW,2013-07-13 09:17:00,
2013-07-13 02:22:00,78.8,65.2,27.34,NE,45,0.0,0.0,63,0.00,,,0.00,WUHU216HW,2013-07-13 09:22:00,
2013-07-13 02:27:00,78.8,65.6,27.34,NE,45,0.0,0.0,64,0.00,,,0.00,WUHU216HW,2013-07-13 09:27:00,
2013-07-13 02:32:00,78.7,65.4,27.34,NE,45,0.0,0.0,64,0.00,,,0.00,WUHU216HW,2013-07-13 09:32:00,
2013-07-13 02:37:00,78.5,65.7,27.34,NE,45,0.0,0.0,65,0.00,,,0.00,WUHU216HW,2013-07-13 09:37:00,
2013-07-13 02:42:00,78.5,65.7,27.34,NE,45,0.0,0.0,65,0.00,,,0.00,WUHU216HW,2013-07-13 09:42:00,
2013-07-13 02:47:00,78.3,65.5,27.34,NNE,23,0.0,0.4,65,0.00,,,0.00,WUHU216HW,2013-07-13 09:47:00,
2013-07-13 02:52:00,78.1,65.3,27.34,NNE,23,0.0,0.4,65,0.00,,,0.00,WUHU216HW,2013-07-13 09:52:00,
2013-07-13 02:57:00,78.1,65.3,27.34,NNE,23,0.2,0.2,65,0.00,,,0.00,WUHU216HW,2013-07-13 09:57:00,
2013-07-13 03:02:00,78.1,65.3,27.34,NNE,23,0.0,0.2,65,0.00,,,0.00,WUHU216HW,2013-07-13 10:02:00,
2013-07-13 03:07:00,78.1,65.8,27.34,NNE,23,0.0,0.0,66,0.00,,,0.00,WUHU216HW,2013-07-13 10:07:00,
2013-07-13 03:12:00,78.1,65.8,27.34,NNE,23,0.0,0.0,66,0.00,,,0.00,WUHU216HW,2013-07-13 10:12:00,
2013-07-13 03:17:00,77.9,65.6,27.34,NNE,23,0.0,0.0,66,0.00,,,0.00,WUHU216HW,2013-07-13 10:17:00,
2013-07-13 03:22:00,77.9,65.6,27.34,NNE,23,0.0,0.0,66,0.00,,,0.00,WUHU216HW,2013-07-13 10:22:00,
2013-07-13 03:27:00,77.8,65.5,27.34,NNE,23,0.0,0.0,66,0.00,,,0.00,WUHU216HW,2013-07-13 10:27:00,
2013-07-13 03:32:00,77.8,65.5,27.34,NNE,23,0.0,0.0,66,0.00,,,0.00,WUHU216HW,2013-07-13 10:32:00,
2013-07-13 03:37:00,77.8,65.9,27.34,NNE,23,0.0,0.0,67,0.00,,,0.00,WUHU216HW,2013-07-13 10:37:00,
2013-07-13 03:42:00,77.6,65.8,27.34,NNE,23,0.0,0.0,67,0.00,,,0.00,WUHU216HW,2013-07-13 10:42:00,
2013-07-13 03:47:00,77.6,65.8,27.34,NNE,23,0.0,0.0,67,0.00,,,0.00,WUHU216HW,2013-07-13 10:47:00,
2013-07-13 03:52:00,77.6,66.3,27.34,NNE,23,0.0,0.0,68,0.00,,,0.00,WUHU216HW,2013-07-13 10:52:00,
2013-07-13 03:57:00,77.6,66.3,27.34,NNE,23,0.0,0.0,68,0.00,,,0.00,WUHU216HW,2013-07-13 10:57:00,
2013-07-13 04:02:00,77.6,66.3,27.34,NNE,23,0.0,0.0,68,0.00,,,0.00,WUHU216HW,2013-07-13 11:02:00,
2013-07-13 04:07:00,77.6,66.3,27.34,NE,45,0.0,0.0,68,0.00,,,0.00,WUHU216HW,2013-07-13 11:07:00,
2013-07-13 04:12:00,77.4,66.5,27.34,SSE,158,0.0,0.4,69,0.00,,,0.00,WUHU216HW,2013-07-13 11:12:00,
2013-07-13 04:17:00,77.4,66.5,27.34,SE,135,0.0,0.4,69,0.00,,,0.00,WUHU216HW,2013-07-13 11:17:00,
2013-07-13 04:22:00,77.4,66.5,27.34,SE,135,0.0,0.0,69,0.00,,,0.00,WUHU216HW,2013-07-13 11:22:00,
2013-07-13 04:27:00,77.2,66.8,27.34,SE,135,0.0,0.0,70,0.00,,,0.00,WUHU216HW,2013-07-13 11:27:00,
2013-07-13 04:32:00,77.2,66.8,27.34,SE,135,0.0,0.0,70,0.00,,,0.00,WUHU216HW,2013-07-13 11:32:00,
2013-07-13 04:37:00,77.2,66.8,27.34,ESE,113,0.0,0.2,70,0.00,,,0.00,WUHU216HW,2013-07-13 11:37:00,
2013-07-13 04:42:00,77.0,66.6,27.34,ESE,113,0.0,0.2,70,0.00,,,0.00,WUHU216HW,2013-07-13 11:42:00,
2013-07-13 04:47:00,77.0,66.6,27.34,ESE,113,0.0,0.0,70,0.00,,,0.00,WUHU216HW,2013-07-13 11:47:00,
2013-07-13 04:52:00,77.0,66.6,27.34,ESE,113,0.0,0.0,70,0.00,,,0.00,WUHU216HW,2013-07-13 11:52:00,
2013-07-13 04:57:00,77.0,66.6,27.34,ESE,113,0.0,0.0,70,0.00,,,0.00,WUHU216HW,2013-07-13 11:57:00,
2013-07-13 05:02:00,77.0,66.6,27.34,ESE,113,0.0,0.0,70,0.00,,,0.00,WUHU216HW,2013-07-13 12:02:00,
2013-07-13 05:07:00,77.0,66.6,27.35,ESE,113,0.0,0.0,70,0.00,,,0.00,WUHU216HW,2013-07-13 12:07:00,
2013-07-13 05:12:00,77.0,66.6,27.35,ESE,113,0.0,0.0,70,0.00,,,0.00,WUHU216HW,2013-07-13 12:12:00,
2013-07-13 05:17:00,76.9,66.4,27.35,ESE,113,0.0,0.0,70,0.00,,,0.00,WUHU216HW,2013-07-13 12:17:00,
2013-07-13 05:22:00,76.9,66.0,27.35,ESE,113,0.0,0.0,69,0.00,,,0.00,WUHU216HW,2013-07-13 12:22:00,
2013-07-13 05:27:00,76.9,66.0,27.35,ESE,113,0.0,0.0,69,0.00,,,0.00,WUHU216HW,2013-07-13 12:27:00,
2013-07-13 05:32:00,76.9,66.0,27.36,ESE,113,0.0,0.0,69,0.00,,,0.00,WUHU216HW,2013-07-13 12:32:00,
2013-07-13 05:37:00,77.0,66.2,27.36,ESE,113,0.0,0.0,69,0.00,,,0.00,WUHU216HW,2013-07-13 12:37:00,
2013-07-13 05:42:00,77.0,66.2,27.36,ESE,113,0.0,0.0,69,0.00,,,0.00,WUHU216HW,2013-07-13 12:42:00,
2013-07-13 05:47:00,77.0,66.6,27.37,ESE,113,0.0,0.0,70,0.00,,,0.00,WUHU216HW,2013-07-13 12:47:00,
2013-07-13 05:52:00,77.0,66.6,27.37,ESE,113,0.0,0.0,70,0.00,,,0.00,WUHU216HW,2013-07-13 12:52:00,
2013-07-13 05:57:00,77.0,67.0,27.37,ESE,113,0.0,0.0,71,0.00,,,0.00,WUHU216HW,2013-07-13 12:57:00,
2013-07-13 06:02:00,77.0,67.0,27.37,SE,135,0.0,0.0,71,0.00,,,0.00,WUHU216HW,2013-07-13 13:02:00,
2013-07-13 06:07:00,77.2,67.1,27.37,SE,135,0.0,0.0,71,0.00,,,0.00,WUHU216HW,2013-07-13 13:07:00,
2013-07-13 06:12:00,77.4,67.3,27.37,SE,135,0.0,0.0,71,0.00,,,0.00,WUHU216HW,2013-07-13 13:12:00,
2013-07-13 06:17:00,77.4,67.3,27.37,SSW,203,0.0,0.0,71,0.00,,,0.00,WUHU216HW,2013-07-13 13:17:00,
2013-07-13 06:22:00,77.6,67.5,27.38,SSW,203,0.0,0.0,71,0.00,,,0.00,WUHU216HW,2013-07-13 13:22:00,
2013-07-13 06:27:00,77.9,67.4,27.38,West,270,0.7,0.7,70,0.00,,,0.00,WUHU216HW,2013-07-13 13:27:00,
2013-07-13 06:32:00,78.1,67.6,27.38,SW,225,0.4,2.2,70,0.00,,,0.00,WUHU216HW,2013-07-13 13:32:00,
2013-07-13 06:37:00,78.5,67.1,27.38,SW,225,1.6,2.2,68,0.00,,,0.00,WUHU216HW,2013-07-13 13:37:00,
2013-07-13 06:42:00,78.7,66.3,27.39,WSW,248,0.9,2.0,66,0.00,,,0.00,WUHU216HW,2013-07-13 13:42:00,
2013-07-13 06:47:00,79.0,66.7,27.39,SSW,203,1.3,1.3,66,0.00,,,0.00,WUHU216HW,2013-07-13 13:47:00,
2013-07-13 06:52:00,79.4,66.6,27.39,SW,225,0.4,1.3,65,0.00,,,0.00,WUHU216HW,2013-07-13 13:52:00,
2013-07-13 06:57:00,79.7,66.5,27.39,WSW,248,0.9,1.6,64,0.00,,,0.00,WUHU216HW,2013-07-13 13:57:00,
2013-07-13 07:02:00,80.1,66.3,27.39,SW,225,0.4,1.6,63,0.00,,,0.00,WUHU216HW,2013-07-13 14:02:00,
2013-07-13 07:07:00,80.3,66.1,27.39,SW,225,0.2,0.9,62,0.00,,,0.00,WUHU216HW,2013-07-13 14:07:00,
2013-07-13 07:12:00,80.6,66.4,27.40,SW,225,0.0,0.7,62,0.00,,,0.00,WUHU216HW,2013-07-13 14:12:00,
2013-07-13 07:17:00,80.6,66.0,27.40,SW,225,0.0,0.2,61,0.00,,,0.00,WUHU216HW,2013-07-13 14:17:00,
2013-07-13 07:22:00,80.8,66.2,27.40,WSW,248,0.0,0.0,61,0.00,,,0.00,WUHU216HW,2013-07-13 14:22:00,
2013-07-13 07:27:00,81.0,65.9,27.40,WSW,248,0.0,0.2,60,0.00,,,0.00,WUHU216HW,2013-07-13 14:27:00,
2013-07-13 07:32:00,81.4,65.6,27.40,West,270,0.7,0.7,59,0.00,,,0.00,WUHU216HW,2013-07-13 14:32:00,
2013-07-13 07:37:00,81.5,65.8,27.40,NNW,338,0.4,0.7,59,0.00,,,0.00,WUHU216HW,2013-07-13 14:37:00,
2013-07-13 07:42:00,81.9,65.6,27.40,North,0,0.0,0.4,58,0.00,,,0.00,WUHU216HW,2013-07-13 14:42:00,
2013-07-13 07:47:00,82.1,65.8,27.40,ENE,68,0.9,0.9,58,0.00,,,0.00,WUHU216HW,2013-07-13 14:47:00,
2013-07-13 07:52:00,82.4,65.6,27.40,NE,45,0.7,1.3,57,0.00,,,0.00,WUHU216HW,2013-07-13 14:52:00,
2013-07-13 07:57:00,82.6,65.3,27.40,NE,45,0.0,1.3,56,0.00,,,0.00,WUHU216HW,2013-07-13 14:57:00,
2013-07-13 08:02:00,82.8,65.4,27.40,SE,135,1.1,1.1,56,0.00,,,0.00,WUHU216HW,2013-07-13 15:02:00,
2013-07-13 08:07:00,83.2,65.8,27.40,ESE,113,0.0,1.3,56,0.00,,,0.00,WUHU216HW,2013-07-13 15:07:00,
2013-07-13 08:12:00,83.5,65.6,27.40,SSW,203,0.0,1.3,55,0.00,,,0.00,WUHU216HW,2013-07-13 15:12:00,
2013-07-13 08:17:00,83.9,66.0,27.39,SSE,158,1.1,1.1,55,0.00,,,0.00,WUHU216HW,2013-07-13 15:17:00,
2013-07-13 08:22:00,84.2,66.3,27.40,ENE,68,0.0,1.3,55,0.00,,,0.00,WUHU216HW,2013-07-13 15:22:00,
2013-07-13 08:27:00,84.6,66.7,27.40,SE,135,0.9,1.3,55,0.00,,,0.00,WUHU216HW,2013-07-13 15:27:00,
2013-07-13 08:32:00,85.0,66.0,27.40,WNW,293,1.1,1.1,53,0.00,,,0.00,WUHU216HW,2013-07-13 15:32:00,
2013-07-13 08:37:00,85.1,66.1,27.39,NW,315,0.2,1.1,53,0.00,,,0.00,WUHU216HW,2013-07-13 15:37:00,
2013-07-13 08:42:00,85.3,66.2,27.39,NW,315,0.4,0.9,53,0.00,,,0.00,WUHU216HW,2013-07-13 15:42:00,
2013-07-13 08:47:00,85.3,65.3,27.39,NW,315,0.4,1.1,51,0.00,,,0.00,WUHU216HW,2013-07-13 15:47:00,
2013-07-13 08:52:00,85.5,65.3,27.39,NNW,338,0.9,1.1,51,0.00,,,0.00,WUHU216HW,2013-07-13 15:52:00,
2013-07-13 08:57:00,85.5,64.9,27.39,ESE,113,0.0,1.1,50,0.00,,,0.00,WUHU216HW,2013-07-13 15:57:00,
2013-07-13 09:02:00,85.7,65.0,27.39,NNE,23,0.7,1.1,50,0.00,,,0.00,WUHU216HW,2013-07-13 16:02:00,
2013-07-13 09:07:00,86.0,64.7,27.39,WNW,293,1.6,1.6,49,0.00,,,0.00,WUHU216HW,2013-07-13 16:07:00,
2013-07-13 09:12:00,86.2,64.3,27.39,WNW,293,0.4,1.6,48,0.00,,,0.00,WUHU216HW,2013-07-13 16:12:00,
2013-07-13 09:17:00,86.4,65.1,27.39,South,180,0.7,1.1,49,0.00,,,0.00,WUHU216HW,2013-07-13 16:17:00,
2013-07-13 09:22:00,86.8,64.7,27.39,West,270,0.9,1.3,48,0.00,,,0.00,WUHU216HW,2013-07-13 16:22:00,
2013-07-13 09:27:00,87.1,65.1,27.38,SSE,158,0.7,1.3,48,0.00,,,0.00,WUHU216HW,2013-07-13 16:27:00,
2013-07-13 09:32:00,87.5,65.3,27.38,WSW,248,0.4,2.5,48,0.00,,,0.00,WUHU216HW,2013-07-13 16:32:00,
2013-07-13 09:37:00,88.0,65.9,27.39,WSW,248,1.3,2.5,48,0.00,,,0.00,WUHU216HW,2013-07-13 16:37:00,
2013-07-13 09:42:00,88.0,64.6,27.38,NNW,338,0.4,2.9,46,0.00,,,0.00,WUHU216HW,2013-07-13 16:42:00,
2013-07-13 09:47:00,88.0,65.3,27.38,SE,135,0.2,2.9,47,0.00,,,0.00,WUHU216HW,2013-07-13 16:47:00,
2013-07-13 09:52:00,88.2,64.7,27.38,NNW,338,2.5,2.5,46,0.00,,,0.00,WUHU216HW,2013-07-13 16:52:00,
2013-07-13 09:57:00,88.6,65.1,27.38,North,0,1.3,2.5,46,0.00,,,0.00,WUHU216HW,2013-07-13 16:57:00,
2013-07-13 10:02:00,88.7,65.3,27.38,SE,135,1.1,1.8,46,0.00,,,0.00,WUHU216HW,2013-07-13 17:02:00,
2013-07-13 10:07:00,89.5,65.8,27.37,WSW,248,2.2,2.2,46,0.00,,,0.00,WUHU216HW,2013-07-13 17:07:00,
2013-07-13 10:12:00,89.8,65.5,27.37,WSW,248,0.7,2.2,45,0.00,,,0.00,WUHU216HW,2013-07-13 17:12:00,
2013-07-13 10:17:00,90.0,65.7,27.37,WSW,248,0.4,3.1,45,0.00,,,0.00,WUHU216HW,2013-07-13 17:17:00,
2013-07-13 10:22:00,90.4,66.0,27.37,South,180,0.4,3.1,45,0.00,,,0.00,WUHU216HW,2013-07-13 17:22:00,
2013-07-13 10:27:00,90.5,65.5,27.37,SW,225,1.1,2.0,44,0.00,,,0.00,WUHU216HW,2013-07-13 17:27:00,
2013-07-13 10:32:00,91.4,66.3,27.37,SW,225,2.5,2.5,44,0.00,,,0.00,WUHU216HW,2013-07-13 17:32:00,
2013-07-13 10:37:00,92.0,66.2,27.37,SW,225,0.4,2.5,43,0.00,,,0.00,WUHU216HW,2013-07-13 17:37:00,
2013-07-13 10:42:00,91.8,65.3,27.37,SW,225,0.9,2.5,42,0.00,,,0.00,WUHU216HW,2013-07-13 17:42:00,
2013-07-13 10:47:00,92.0,64.9,27.37,WSW,248,2.5,2.5,41,0.00,,,0.00,WUHU216HW,2013-07-13 17:47:00,
2013-07-13 10:52:00,92.2,65.0,27.37,WSW,248,0.4,3.4,41,0.00,,,0.00,WUHU216HW,2013-07-13 17:52:00,
2013-07-13 10:57:00,92.5,65.3,27.37,WSW,248,2.0,3.4,41,0.00,,,0.00,WUHU216HW,2013-07-13 17:57:00,
2013-07-13 11:02:00,92.7,65.5,27.36,WSW,248,2.5,2.7,41,0.00,,,0.00,WUHU216HW,2013-07-13 18:02:00,
2013-07-13 11:07:00,93.1,65.8,27.36,SW,225,0.4,2.7,41,0.00,,,0.00,WUHU216HW,2013-07-13 18:07:00,
2013-07-13 11:12:00,93.2,64.5,27.36,WSW,248,2.5,2.5,39,0.00,,,0.00,WUHU216HW,2013-07-13 18:12:00,
2013-07-13 11:17:00,93.4,64.7,27.36,West,270,1.3,3.8,39,0.00,,,0.00,WUHU216HW,2013-07-13 18:17:00,
2013-07-13 11:22:00,93.6,64.9,27.35,SE,135,1.8,3.8,39,0.00,,,0.00,WUHU216HW,2013-07-13 18:22:00,
2013-07-13 11:27:00,93.8,64.2,27.35,NW,315,0.9,2.9,38,0.00,,,0.00,WUHU216HW,2013-07-13 18:27:00,
2013-07-13 11:32:00,93.8,63.4,27.35,NW,315,2.5,2.5,37,0.00,,,0.00,WUHU216HW,2013-07-13 18:32:00,
2013-07-13 11:37:00,94.0,64.4,27.35,SW,225,1.1,3.4,38,0.00,,,0.00,WUHU216HW,2013-07-13 18:37:00,
2013-07-13 11:42:00,94.3,64.7,27.35,ESE,113,0.7,3.6,38,0.00,,,0.00,WUHU216HW,2013-07-13 18:42:00,
2013-07-13 11:47:00,94.7,63.4,27.35,ESE,113,2.7,3.6,36,0.00,,,0.00,WUHU216HW,2013-07-13 18:47:00,
2013-07-13 11:52:00,95.0,64.5,27.35,NW,315,1.8,2.7,37,0.00,,,0.00,WUHU216HW,2013-07-13 18:52:00,
2013-07-13 11:57:00,95.2,65.5,27.34,SSW,203,4.0,4.0,38,0.00,,,0.00,WUHU216HW,2013-07-13 18:57:00,
2013-07-13 12:02:00,95.8,64.4,27.34,SW,225,1.8,5.8,36,0.00,,,0.00,WUHU216HW,2013-07-13 19:02:00,
2013-07-13 12:07:00,95.8,64.4,27.34,West,270,1.6,5.8,36,0.00,,,0.00,WUHU216HW,2013-07-13 19:07:00,
2013-07-13 12:12:00,96.1,64.6,27.34,WSW,248,2.5,4.0,36,0.00,,,0.00,WUHU216HW,2013-07-13 19:12:00,
2013-07-13 12:17:00,96.5,65.0,27.34,SSW,203,4.7,4.7,36,0.00,,,0.00,WUHU216HW,2013-07-13 19:17:00,
2013-07-13 12:22:00,96.7,65.1,27.33,SSW,203,3.4,4.7,36,0.00,,,0.00,WUHU216HW,2013-07-13 19:22:00,
2013-07-13 12:27:00,96.8,65.3,27.33,South,180,1.3,4.0,36,0.00,,,0.00,WUHU216HW,2013-07-13 19:27:00,
2013-07-13 12:32:00,97.4,65.8,27.33,SSW,203,1.6,4.5,36,0.00,,,0.00,WUHU216HW,2013-07-13 19:32:00,
2013-07-13 12:37:00,97.7,64.5,27.32,SW,225,1.1,4.5,34,0.00,,,0.00,WUHU216HW,2013-07-13 19:37:00,
2013-07-13 12:42:00,97.2,63.9,27.32,NNW,338,2.9,5.6,34,0.00,,,0.00,WUHU216HW,2013-07-13 19:42:00,
2013-07-13 12:47:00,97.0,63.8,27.32,WSW,248,0.4,5.6,34,0.00,,,0.00,WUHU216HW,2013-07-13 19:47:00,
2013-07-13 12:52:00,97.2,63.9,27.32,WNW,293,1.8,3.8,34,0.00,,,0.00,WUHU216HW,2013-07-13 19:52:00,
2013-07-13 12:57:00,97.2,63.9,27.32,WSW,248,3.8,3.8,34,0.00,,,0.00,WUHU216HW,2013-07-13 19:57:00,
2013-07-13 13:02:00,97.4,64.1,27.32,WSW,248,2.5,5.6,34,0.00,,,0.00,WUHU216HW,2013-07-13 20:02:00,
2013-07-13 13:07:00,97.6,64.3,27.31,WSW,248,3.4,5.6,34,0.00,,,0.00,WUHU216HW,2013-07-13 20:07:00,
2013-07-13 13:12:00,97.7,64.5,27.31,WSW,248,1.6,3.8,34,0.00,,,0.00,WUHU216HW,2013-07-13 20:12:00,
2013-07-13 13:17:00,98.3,64.9,27.31,SSE,158,2.7,4.7,34,0.00,,,0.00,WUHU216HW,2013-07-13 20:17:00,
2013-07-13 13:22:00,98.8,63.7,27.31,WSW,248,5.4,6.7,32,0.00,,,0.00,WUHU216HW,2013-07-13 20:22:00,
2013-07-13 13:27:00,98.8,64.5,27.30,SW,225,4.5,6.7,33,0.00,,,0.00,WUHU216HW,2013-07-13 20:27:00,
2013-07-13 13:32:00,98.6,63.5,27.30,WSW,248,4.0,5.4,32,0.00,,,0.00,WUHU216HW,2013-07-13 20:32:00,
2013-07-13 13:37:00,98.1,62.3,27.30,WSW,248,4.7,5.4,31,0.00,,,0.00,WUHU216HW,2013-07-13 20:37:00,
2013-07-13 13:42:00,97.9,62.9,27.30,WSW,248,3.4,5.4,32,0.00,,,0.00,WUHU216HW,2013-07-13 20:42:00,
2013-07-13 13:47:00,98.3,63.3,27.30,WSW,248,3.4,4.5,32,0.00,,,0.00,WUHU216HW,2013-07-13 20:47:00,
2013-07-13 13:52:00,99.0,63.1,27.30,WSW,248,4.0,4.9,31,0.00,,,0.00,WUHU216HW,2013-07-13 20:52:00,
2013-07-13 13:57:00,99.4,63.4,27.30,WSW,248,4.0,5.1,31,0.00,,,0.00,WUHU216HW,2013-07-13 20:57:00,
2013-07-13 14:02:00,99.5,63.5,27.30,SW,225,2.0,5.1,31,0.00,,,0.00,WUHU216HW,2013-07-13 21:02:00,
2013-07-13 14:07:00,99.4,62.6,27.30,WSW,248,3.1,7.6,30,0.00,,,0.00,WUHU216HW,2013-07-13 21:07:00,
2013-07-13 14:12:00,98.8,62.9,27.30,NNE,23,2.2,7.6,31,0.00,,,0.00,WUHU216HW,2013-07-13 21:12:00,
2013-07-13 14:17:00,98.3,62.5,27.29,NNE,23,6.9,8.5,31,0.00,,,0.00,WUHU216HW,2013-07-13 21:17:00,
2013-07-13 14:22:00,97.7,61.9,27.29,NNW,338,4.7,8.5,31,0.00,,,0.00,WUHU216HW,2013-07-13 21:22:00,
2013-07-13 14:27:00,97.2,61.5,27.29,NNW,338,3.8,6.3,31,0.00,,,0.00,WUHU216HW,2013-07-13 21:27:00,
2013-07-13 14:32:00,96.8,61.9,27.29,NW,315,6.3,6.3,32,0.00,,,0.00,WUHU216HW,2013-07-13 21:32:00,
2013-07-13 14:37:00,96.3,61.5,27.29,NNW,338,1.1,6.3,32,0.00,,,0.00,WUHU216HW,2013-07-13 21:37:00,
2013-07-13 14:42:00,96.1,62.2,27.29,NW,315,1.6,4.7,33,0.00,,,0.00,WUHU216HW,2013-07-13 21:42:00,
2013-07-13 14:47:00,95.9,62.0,27.28,NNW,338,3.4,3.4,33,0.00,,,0.00,WUHU216HW,2013-07-13 21:47:00,
2013-07-13 14:52:00,95.8,61.9,27.28,NW,315,2.2,4.5,33,0.00,,,0.00,WUHU216HW,2013-07-13 21:52:00,
2013-07-13 14:57:00,95.4,61.6,27.29,NNW,338,2.2,4.5,33,0.00,,,0.00,WUHU216HW,2013-07-13 21:57:00,
2013-07-13 15:02:00,95.0,61.3,27.28,WSW,248,1.6,2.7,33,0.00,,,0.00,WUHU216HW,2013-07-13 22:02:00,
2013-07-13 15:07:00,95.2,62.3,27.28,SW,225,0.9,1.8,34,0.00,,,0.00,WUHU216HW,2013-07-13 22:07:00,
2013-07-13 15:12:00,95.6,61.8,27.28,WNW,293,2.0,2.0,33,0.00,,,0.00,WUHU216HW,2013-07-13 22:12:00,
2013-07-13 15:17:00,96.1,62.2,27.28,WNW,293,1.6,2.5,33,0.00,,,0.00,WUHU216HW,2013-07-13 22:17:00,
2013-07-13 15:22:00,96.5,62.5,27.28,SW,225,1.8,2.5,33,0.00,,,0.00,WUHU216HW,2013-07-13 22:22:00,
2013-07-13 15:27:00,96.8,61.9,27.28,WSW,248,2.0,2.0,32,0.00,,,0.00,WUHU216HW,2013-07-13 22:27:00,
2013-07-13 15:32:00,97.2,62.3,27.27,West,270,0.9,3.1,32,0.00,,,0.00,WUHU216HW,2013-07-13 22:32:00,
2013-07-13 15:37:00,97.2,62.3,27.27,SSW,203,3.6,4.7,32,0.00,,,0.00,WUHU216HW,2013-07-13 22:37:00,
2013-07-13 15:42:00,97.0,62.1,27.27,WSW,248,2.0,4.7,32,0.00,,,0.00,WUHU216HW,2013-07-13 22:42:00,
2013-07-13 15:47:00,97.2,61.5,27.27,SW,225,3.6,6.9,31,0.00,,,0.00,WUHU216HW,2013-07-13 22:47:00,
2013-07-13 15:52:00,96.8,61.1,27.27,SW,225,4.7,6.9,31,0.00,,,0.00,WUHU216HW,2013-07-13 22:52:00,
2013-07-13 15:57:00,97.0,61.3,27.27,WSW,248,2.7,5.4,31,0.00,,,0.00,WUHU216HW,2013-07-13 22:57:00,
2013-07-13 16:02:00,97.4,61.7,27.27,WSW,248,3.8,5.4,31,0.00,,,0.00,WUHU216HW,2013-07-13 23:02:00,
2013-07-13 16:07:00,97.6,61.7,27.27,West,270,2.9,4.7,31,0.00,,,0.00,WUHU216HW,2013-07-13 23:07:00,
2013-07-13 16:12:00,98.1,62.3,27.27,West,270,4.9,4.9,31,0.00,,,0.00,WUHU216HW,2013-07-13 23:12:00,
2013-07-13 16:17:00,97.9,61.3,27.28,WSW,248,4.5,5.1,30,0.00,,,0.00,WUHU216HW,2013-07-13 23:17:00,
2013-07-13 16:22:00,97.2,60.7,27.27,SW,225,5.4,5.4,30,0.00,,,0.00,WUHU216HW,2013-07-13 23:22:00,
2013-07-13 16:27:00,96.8,61.1,27.27,West,270,2.9,5.4,31,0.00,,,0.00,WUHU216HW,2013-07-13 23:27:00,
2013-07-13 16:32:00,96.8,61.1,27.27,East,90,0.9,4.3,31,0.00,,,0.00,WUHU216HW,2013-07-13 23:32:00,
2013-07-13 16:37:00,96.8,61.1,27.28,North,0,1.1,2.2,31,0.00,,,0.00,WUHU216HW,2013-07-13 23:37:00,
2013-07-13 16:42:00,96.7,61.8,27.27,SE,135,3.4,3.4,32,0.00,,,0.00,WUHU216HW,2013-07-13 23:42:00,
2013-07-13 16:47:00,96.3,61.5,27.27,East,90,1.1,4.7,32,0.00,,,0.00,WUHU216HW,2013-07-13 23:47:00,
2013-07-13 16:52:00,95.9,61.2,27.27,NE,45,3.4,5.4,32,0.00,,,0.00,WUHU216HW,2013-07-13 23:52:00,
2013-07-13 16:57:00,95.8,61.1,27.27,ENE,68,2.7,5.4,32,0.00,,,0.00,WUHU216HW,2013-07-13 23:57:00,
2013-07-13 17:02:00,95.6,60.9,27.27,NNW,338,3.1,4.0,32,0.00,,,0.00,WUHU216HW,2013-07-14 00:02:00,
2013-07-13 17:07:00,95.4,60.8,27.27,North,0,0.9,3.1,32,0.00,,,0.00,WUHU216HW,2013-07-14 00:07:00,
2013-07-13 17:12:00,95.4,61.6,27.27,NE,45,0.7,2.9,33,0.00,,,0.00,WUHU216HW,2013-07-14 00:12:00,
2013-07-13 17:17:00,95.0,61.3,27.28,NW,315,2.9,2.9,33,0.00,,,0.00,WUHU216HW,2013-07-14 00:17:00,
2013-07-13 17:22:00,94.9,61.9,27.28,NNW,338,1.6,3.1,34,0.00,,,0.00,WUHU216HW,2013-07-14 00:22:00,
2013-07-13 17:27:00,94.9,61.9,27.27,ESE,113,0.7,3.1,34,0.00,,,0.00,WUHU216HW,2013-07-14 00:27:00,
2013-07-13 17:32:00,94.7,61.7,27.27,NNW,338,0.9,1.3,34,0.00,,,0.00,WUHU216HW,2013-07-14 00:32:00,
2013-07-13 17:37:00,94.7,61.7,27.27,SE,135,0.0,1.3,34,0.00,,,0.00,WUHU216HW,2013-07-14 00:37:00,
2013-07-13 17:42:00,94.9,61.9,27.27,SSW,203,0.4,0.7,34,0.00,,,0.00,WUHU216HW,2013-07-14 00:42:00,
2013-07-13 17:47:00,94.9,61.9,27.27,SSW,203,0.2,0.4,34,0.00,,,0.00,WUHU216HW,2013-07-14 00:47:00,
2013-07-13 17:52:00,95.0,62.1,27.27,SE,135,0.4,0.9,34,0.00,,,0.00,WUHU216HW,2013-07-14 00:52:00,
2013-07-13 17:57:00,94.9,61.9,27.27,SE,135,0.4,0.9,34,0.00,,,0.00,WUHU216HW,2013-07-14 00:57:00,
2013-07-13 18:02:00,94.7,61.7,27.26,SSE,158,1.3,1.3,34,0.00,,,0.00,WUHU216HW,2013-07-14 01:02:00,
2013-07-13 18:07:00,94.5,61.7,27.26,SSE,158,0.4,1.6,34,0.00,,,0.00,WUHU216HW,2013-07-14 01:07:00,
2013-07-13 18:12:00,94.7,61.7,27.27,SSE,158,0.4,1.1,34,0.00,,,0.00,WUHU216HW,2013-07-14 01:12:00,
2013-07-13 18:17:00,94.7,61.7,27.27,SSE,158,1.8,2.0,34,0.00,,,0.00,WUHU216HW,2013-07-14 01:17:00,
2013-07-13 18:22:00,94.9,61.9,27.27,SE,135,1.1,2.5,34,0.00,,,0.00,WUHU216HW,2013-07-14 01:22:00,
2013-07-13 18:27:00,95.0,62.1,27.27,SE,135,0.7,2.5,34,0.00,,,0.00,WUHU216HW,2013-07-14 01:27:00,
2013-07-13 18:32:00,95.0,62.1,27.28,ESE,113,0.2,1.8,34,0.00,,,0.00,WUHU216HW,2013-07-14 01:32:00,
2013-07-13 18:37:00,94.9,61.9,27.28,ESE,113,1.6,1.8,34,0.00,,,0.00,WUHU216HW,2013-07-14 01:37:00,
2013-07-13 18:42:00,94.7,61.7,27.28,SE,135,0.7,1.8,34,0.00,,,0.00,WUHU216HW,2013-07-14 01:42:00,
2013-07-13 18:47:00,94.5,61.7,27.28,SE,135,0.4,1.3,34,0.00,,,0.00,WUHU216HW,2013-07-14 01:47:00,
2013-07-13 18:52:00,94.3,61.5,27.28,East,90,0.7,1.1,34,0.00,,,0.00,WUHU216HW,2013-07-14 01:52:00,
2013-07-13 18:57:00,94.3,61.5,27.28,South,180,1.1,1.1,34,0.00,,,0.00,WUHU216HW,2013-07-14 01:57:00,
2013-07-13 19:02:00,94.1,61.3,27.28,SE,135,0.9,1.8,34,0.00,,,0.00,WUHU216HW,2013-07-14 02:02:00,
2013-07-13 19:07:00,94.0,61.9,27.28,SE,135,0.4,1.8,35,0.00,,,0.00,WUHU216HW,2013-07-14 02:07:00,
2013-07-13 19:12:00,93.8,61.7,27.28,WSW,248,0.4,1.1,35,0.00,,,0.00,WUHU216HW,2013-07-14 02:12:00,
2013-07-13 19:17:00,93.6,61.7,27.28,SE,135,0.4,1.1,35,0.00,,,0.00,WUHU216HW,2013-07-14 02:17:00,
2013-07-13 19:18:00,93.6,61.7,27.28,East,90,0.4,1.1,35,0.00,,,0.00,WUHU216HW,2013-07-14 02:18:00,
2013-07-13 19:23:00,93.4,61.5,27.28,NE,45,0.0,0.7,35,0.00,,,0.00,WUHU216HW,2013-07-14 02:23:00,
2013-07-13 19:28:00,93.2,61.3,27.28,NE,45,0.0,0.7,35,0.00,,,0.00,WUHU216HW,2013-07-14 02:28:00,
2013-07-13 19:33:00,93.1,61.1,27.29,NE,45,0.0,0.0,35,0.00,,,0.00,WUHU216HW,2013-07-14 02:33:00,
2013-07-13 19:38:00,93.1,61.1,27.29,NE,45,0.0,0.0,35,0.00,,,0.00,WUHU216HW,2013-07-14 02:38:00,
2013-07-13 19:43:00,92.9,61.8,27.29,NE,45,0.0,0.0,36,0.00,,,0.00,WUHU216HW,2013-07-14 02:43:00,
2013-07-13 19:48:00,92.7,61.7,27.30,ENE,68,0.0,0.0,36,0.00,,,0.00,WUHU216HW,2013-07-14 02:48:00,
2013-07-13 19:53:00,92.5,61.5,27.30,ESE,113,0.0,0.0,36,0.00,,,0.00,WUHU216HW,2013-07-14 02:53:00,
2013-07-13 19:58:00,92.3,62.1,27.30,SE,135,0.7,0.7,37,0.00,,,0.00,WUHU216HW,2013-07-14 02:58:00,
2013-07-13 20:03:00,92.0,62.7,27.31,SE,135,0.0,0.7,38,0.00,,,0.00,WUHU216HW,2013-07-14 03:03:00,
2013-07-13 20:08:00,91.8,62.5,27.31,ESE,113,0.0,0.7,38,0.00,,,0.00,WUHU216HW,2013-07-14 03:08:00,
2013-07-13 20:13:00,91.4,62.1,27.31,SE,135,1.6,1.6,38,0.00,,,0.00,WUHU216HW,2013-07-14 03:13:00,
2013-07-13 20:18:00,91.1,62.7,27.32,ESE,113,3.6,4.5,39,0.00,,,0.00,WUHU216HW,2013-07-14 03:18:00,
2013-07-13 20:23:00,90.7,63.1,27.32,SSW,203,1.3,4.5,40,0.00,,,0.00,WUHU216HW,2013-07-14 03:23:00,
2013-07-13 20:28:00,90.4,62.7,27.32,SW,225,1.3,2.9,40,0.00,,,0.00,WUHU216HW,2013-07-14 03:28:00,
2013-07-13 20:33:00,90.2,62.6,27.32,SW,225,1.1,2.5,40,0.00,,,0.00,WUHU216HW,2013-07-14 03:33:00,
2013-07-13 20:38:00,90.0,63.1,27.32,ENE,68,1.3,2.5,41,0.00,,,0.00,WUHU216HW,2013-07-14 03:38:00,
2013-07-13 20:43:00,89.8,62.9,27.32,NE,45,1.3,2.0,41,0.00,,,0.00,WUHU216HW,2013-07-14 03:43:00,
2013-07-13 20:48:00,89.6,62.7,27.32,ENE,68,1.1,2.9,41,0.00,,,0.00,WUHU216HW,2013-07-14 03:48:00,
2013-07-13 20:53:00,89.5,62.7,27.32,SE,135,2.5,2.9,41,0.00,,,0.00,WUHU216HW,2013-07-14 03:53:00,
2013-07-13 20:58:00,89.3,63.1,27.32,ENE,68,0.4,2.7,42,0.00,,,0.00,WUHU216HW,2013-07-14 03:58:00,
2013-07-13 21:01:00,89.3,63.1,27.33,ESE,113,0.4,2.7,42,0.00,,,0.00,WUHU216HW,2013-07-14 04:01:00,
2013-07-13 21:06:00,89.1,62.9,27.33,SE,135,1.1,2.5,42,0.00,,,0.00,WUHU216HW,2013-07-14 04:06:00,
2013-07-13 21:11:00,89.1,62.9,27.33,ESE,113,1.8,3.4,42,0.00,,,0.00,WUHU216HW,2013-07-14 04:11:00,
2013-07-13 21:16:00,88.7,62.6,27.33,South,180,0.4,3.4,42,0.00,,,0.00,WUHU216HW,2013-07-14 04:16:00,
2013-07-13 21:21:00,88.7,63.3,27.33,SE,135,0.7,1.8,43,0.00,,,0.00,WUHU216HW,2013-07-14 04:21:00,
2013-07-13 21:26:00,88.6,63.2,27.34,SSW,203,1.3,1.8,43,0.00,,,0.00,WUHU216HW,2013-07-14 04:26:00,
2013-07-13 21:31:00,88.4,63.0,27.34,ESE,113,1.8,1.8,43,0.00,,,0.00,WUHU216HW,2013-07-14 04:31:00,
2013-07-13 21:36:00,88.2,62.8,27.35,ESE,113,3.4,3.4,43,0.00,,,0.00,WUHU216HW,2013-07-14 04:36:00,
2013-07-13 21:41:00,88.2,62.8,27.35,ESE,113,0.2,6.7,43,0.00,,,0.00,WUHU216HW,2013-07-14 04:41:00,
2013-07-13 21:46:00,88.2,62.8,27.35,SE,135,0.7,6.7,43,0.00,,,0.00,WUHU216HW,2013-07-14 04:46:00,
2013-07-13 21:51:00,88.2,62.8,27.35,East,90,0.0,2.7,43,0.00,,,0.00,WUHU216HW,2013-07-14 04:51:00,
2013-07-13 21:56:00,88.2,62.8,27.35,SE,135,1.3,1.3,43,0.00,,,0.00,WUHU216HW,2013-07-14 04:56:00,
2013-07-13 22:01:00,88.2,62.8,27.35,WSW,248,0.2,1.3,43,0.00,,,0.00,WUHU216HW,2013-07-14 05:01:00,
2013-07-13 22:06:00,88.2,62.8,27.35,NNE,23,0.4,1.1,43,0.00,,,0.00,WUHU216HW,2013-07-14 05:06:00,
2013-07-13 22:11:00,88.2,62.8,27.35,WSW,248,1.1,1.1,43,0.00,,,0.00,WUHU216HW,2013-07-14 05:11:00,
2013-07-13 22:16:00,88.2,62.8,27.35,SSW,203,0.4,1.1,43,0.00,,,0.00,WUHU216HW,2013-07-14 05:16:00,
2013-07-13 22:21:00,88.2,62.2,27.35,WSW,248,0.4,2.0,42,0.00,,,0.00,WUHU216HW,2013-07-14 05:21:00,
2013-07-13 22:26:00,88.2,62.2,27.35,SSE,158,1.6,2.0,42,0.00,,,0.00,WUHU216HW,2013-07-14 05:26:00,
2013-07-13 22:31:00,88.2,62.8,27.34,WNW,293,1.6,1.6,43,0.00,,,0.00,WUHU216HW,2013-07-14 05:31:00,
2013-07-13 22:36:00,87.8,62.6,27.34,NNW,338,1.1,1.6,43,0.00,,,0.00,WUHU216HW,2013-07-14 05:36:00,
2013-07-13 22:41:00,87.7,63.6,27.34,NW,315,1.8,2.2,45,0.00,,,0.00,WUHU216HW,2013-07-14 05:41:00,
2013-07-13 22:46:00,87.5,62.8,27.34,North,0,0.4,2.2,44,0.00,,,0.00,WUHU216HW,2013-07-14 05:46:00,
2013-07-13 22:51:00,87.5,63.5,27.34,NW,315,0.2,1.1,45,0.00,,,0.00,WUHU216HW,2013-07-14 05:51:00,
2013-07-13 22:56:00,87.5,63.5,27.34,NW,315,0.0,0.9,45,0.00,,,0.00,WUHU216HW,2013-07-14 05:56:00,
2013-07-13 23:01:00,87.1,65.1,27.35,NW,315,0.0,0.4,48,0.00,,,0.00,WUHU216HW,2013-07-14 06:01:00,
2013-07-13 23:06:00,86.9,65.5,27.34,NW,315,0.0,0.0,49,0.00,,,0.00,WUHU216HW,2013-07-14 06:06:00,
2013-07-13 23:11:00,86.6,63.9,27.34,NW,315,0.0,0.0,47,0.00,,,0.00,WUHU216HW,2013-07-14 06:11:00,
2013-07-13 23:16:00,86.6,63.9,27.34,NNW,338,0.2,0.2,47,0.00,,,0.00,WUHU216HW,2013-07-14 06:16:00,
2013-07-13 23:21:00,86.6,63.9,27.34,NNW,338,0.0,0.2,47,0.00,,,0.00,WUHU216HW,2013-07-14 06:21:00,
2013-07-13 23:26:00,86.6,63.9,27.34,NNW,338,0.0,0.0,47,0.00,,,0.00,WUHU216HW,2013-07-14 06:26:00,
2013-07-13 23:31:00,86.6,63.3,27.34,NNW,338,0.0,0.0,46,0.00,,,0.00,WUHU216HW,2013-07-14 06:31:00,
2013-07-13 23:36:00,86.6,63.3,27.34,NNW,338,0.0,0.0,46,0.00,,,0.00,WUHU216HW,2013-07-14 06:36:00,
2013-07-13 23:41:00,86.6,63.9,27.34,NNW,338,0.0,0.0,47,0.00,,,0.00,WUHU216HW,2013-07-14 06:41:00,
2013-07-13 23:46:00,86.4,63.8,27.34,North,0,0.0,0.0,47,0.00,,,0.00,WUHU216HW,2013-07-14 06:46:00,
2013-07-13 23:51:00,86.4,64.5,27.34,NNE,23,0.0,0.0,48,0.00,,,0.00,WUHU216HW,2013-07-14 06:51:00,
2013-07-13 23:56:00,86.4,64.5,27.33,NNE,23,0.0,0.0,48,0.00,,,0.00,WUHU216HW,2013-07-14 06:56:00,